Location: Lake Almanor
(40.2485°N, 121.1442°W)
Time: 12:44:24
(UTC-08:00)

N. Korean satellite - Pass Details

Date: 26 January 2020
Orbit: 456 x 505 km, 97.2° (Epoch: 26 February)

Event Time Altitude Azimuth Distance (km) Brightness Sun altitude
Rises 05:10:22 0° 25° (NNE) 2,546 10.5 -24.5°
Reaches altitude 10° 05:12:43 10° 40° (NE) 1,671 9.7 -24.1°
Maximum altitude 05:15:40 24° 96° (E) 1,061 9.0 -23.5°
Drops below altitude 10° 05:18:38 10° 151° (SSE) 1,681 9.7 -23.0°
Sets 05:21:00 0° 165° (SSE) 2,566 10.5 -22.5°
